User: anonymous   Login
Location: Unspecified
(0.0000°N, 0.0000°E)
Time: 20:15:18
(UTC+00:00)
Language:

TBA - TO BE ASSIGNED - Orbit

View from above orbital plane
View from above orbital plane
View from above satellite
View from above satellite

Ground track
Ground track

The orbit is defined by the following mean orbital elements,

1 67846U          26145.60285041 +.00000000 +00000-0 +57796-3 0 00005
2 67846  42.9998 192.9698 0002017 261.7279  98.3344 15.27592437    08
Epoch (UTC): 25 May 2026 14:28:06
Eccentricity: 0.0002017
inclination: 42.9998°
perigee height: 482 km
apogee height: 484 km
right ascension of ascending node: 192.9698°
argument of perigee: 261.7279°
revolutions per day: 15.27592437
mean anomaly at epoch: 98.3344°

The dashed part of the orbit path shows where the satellite is in the earth's shadow,  

DLR